Location: *
(13.2257°S, 48.7193°W)
Time: 02:48:02
(UTC+00:00)

Meteor 1-28 Rocket - Visible Passes

Search period start: 16 May 2026 00:00
Search period end: 26 May 2026 00:00
Orbit: 420 x 430 km, 97.6° (Epoch: 15 May)

Date Brightness Start Highest point End Pass type
(mag) Time Alt. Az. Time Alt. Az. Time Alt. Az.
16 May 5.0 08:02:03 10° SE 08:04:53 27° E 08:07:40 10° NNE visible
17 May 3.5 08:51:29 10° SSW 08:54:25 31° WSW 08:57:18 10° NW visible
18 May 4.5 08:08:55 10° SSE 08:11:56 35° E 08:14:55 10° NNE visible
19 May 3.9 08:58:43 10° SSW 09:01:25 24° WSW 09:04:04 10° NW visible
20 May 3.8 08:15:47 10° SSE 08:18:56 48° E 08:22:02 10° N visible
21 May 4.2 09:05:59 10° SSW 09:08:21 19° WSW 09:10:42 10° WNW visible
22 May 3.2 08:22:39 10° SSE 08:25:52 65° E 08:29:03 10° N visible
23 May 6.4 07:42:17 10° E 07:43:15 11° E 07:44:12 10° ENE visible
24 May 2.7 08:29:31 10° SSE 08:32:46 88° E 08:35:58 10° N visible
25 May 6.1 07:48:20 10° ESE 07:50:08 14° E 07:51:55 10° NE visible
